Benson, MN

1:36 PM CDT on April 23, 2017 (GMT -0500)
Benson Municipal

Weather History for KBBB - January, 2014

Change the Weather History Date:

Saturday, January 18, 2014

  Actual Average Record
Temperature  
Mean Temperature 16 °F -  
Max Temperature 24 °F 21 °F 46 °F (1981)
Min Temperature 10 °F 0 °F -32 °F (1970)
Degree Days  
Heating Degree Days 48    
Moisture  
Dew Point 13 °F    
Average Humidity 84    
Maximum Humidity 100    
Minimum Humidity 68    
Precipitation  
Precipitation 0.00 in - - ()
Sea Level Pressure  
Sea Level Pressure 29.73 in    
Wind  
Wind Speed 11 mph (North)    
Max Wind Speed 17 mph    
Max Gust Speed 21 mph    
Visibility 9 miles    
Events Snow    
Averages and records for this station are not official NWS values.
T = Trace of Precipitation, MM = Missing Value Source: NWS Daily Summary

Daily Weather History Graph

Daily Weather History Graph

Search for Another Location

Airport or City:

Trip Planner

Search our weather history database for the weather conditions in past years. The results will help you decide how hot, cold, wet, or windy it might be!

Date:

Astronomy

Jan. 18, 2014 Rise Set
Actual Time 7:56 AM CST 5:10 PM CST
Civil Twilight 7:23 AM CST 5:42 PM CST
Nautical Twilight 6:47 AM CST 6:19 PM CST
Astronomical Twilight 6:12 AM CST 6:54 PM CST
Moon 8:03 PM CST (1/18) 8:47 AM CST (1/18)
Length of Visible Light 10h 19m
Length of Day
9h 13m
Waning Gibbous, 94% of the Moon is Illuminated
Jan 18
Waning Gibbous
Jan 23
Last Quarter
Jan 30
New
Feb 6
First Quarter
Feb 14
Full

Hourly Weather History & Observations

Time (CST) Temp. Windchill Dew Point Humidity Pressure Visibility Wind Dir Wind Speed Gust Speed Precip Events Conditions
12:13 AM 15.8 °F 1.4 °F 12.2 °F 86% 29.55 in 10.0 mi South 13.8 mph - N/A Snow Light Snow
12:32 AM 17.6 °F 9.3 °F 12.2 °F 79% 29.55 in 5.0 mi SSE 5.8 mph - N/A Snow Light Snow
12:53 AM 17.6 °F 4.3 °F 14.0 °F 86% 29.52 in 5.0 mi South 12.7 mph - N/A Snow Light Snow
1:13 AM 17.6 °F 4.3 °F 14.0 °F 86% 29.50 in 4.0 mi South 12.7 mph - N/A Snow Light Snow
1:32 AM 17.6 °F 4.3 °F 15.8 °F 93% 29.49 in 1.8 mi South 12.7 mph 17.3 mph N/A Snow Light Snow
1:53 AM 19.4 °F 7.9 °F 15.8 °F 86% 29.46 in 7.0 mi South 10.4 mph - N/A Snow Light Snow
2:13 AM 19.4 °F 7.2 °F 17.6 °F 93% 29.45 in 0.8 mi South 11.5 mph - N/A Snow Snow
2:32 AM 19.4 °F 7.9 °F 17.6 °F 93% 29.44 in 5.0 mi South 10.4 mph - N/A Snow Light Snow
2:53 AM 19.4 °F 8.6 °F 17.6 °F 93% 29.43 in 4.0 mi South 9.2 mph - N/A Snow Light Snow
3:13 AM 21.2 °F 12.6 °F 19.4 °F 93% 29.43 in 2.5 mi South 6.9 mph - N/A Snow Light Snow
3:32 AM 21.2 °F 11.7 °F 19.4 °F 93% 29.42 in 7.0 mi SSE 8.1 mph - N/A Snow Light Snow
3:53 AM 21.2 °F 13.6 °F 19.4 °F 93% 29.41 in 3.0 mi SSE 5.8 mph - N/A   Overcast
4:13 AM 21.2 °F 13.6 °F 19.4 °F 93% 29.41 in 4.0 mi ESE 5.8 mph - N/A Snow Light Snow
4:32 AM 21.2 °F 16.4 °F 21.2 °F 100% 29.41 in 5.0 mi SE 3.5 mph - N/A Snow Light Snow
4:53 AM 21.2 °F 13.6 °F 19.4 °F 93% 29.41 in 4.0 mi SE 5.8 mph - N/A Snow Light Snow
5:12 AM 21.2 °F 13.6 °F 19.4 °F 93% 29.42 in 1.8 mi East 5.8 mph - N/A Snow Light Snow
5:33 AM 19.4 °F 9.5 °F 17.6 °F 93% 29.42 in 10.0 mi ESE 8.1 mph - N/A Snow Light Snow
5:53 AM 19.4 °F 8.6 °F 17.6 °F 93% 29.43 in 10.0 mi ESE 9.2 mph - N/A Snow Light Snow
6:12 AM 19.4 °F 8.6 °F 17.6 °F 93% 29.45 in 10.0 mi East 9.2 mph - N/A Snow Light Snow
6:33 AM 19.4 °F 6.6 °F 15.8 °F 86% 29.48 in 10.0 mi East 12.7 mph - N/A Snow Light Snow
6:52 AM 17.6 °F 2.7 °F 15.8 °F 93% 29.50 in 10.0 mi East 16.1 mph 20.7 mph N/A Snow Light Snow
7:12 AM 17.6 °F 3.7 °F 12.2 °F 79% 29.53 in 10.0 mi East 13.8 mph 18.4 mph N/A Snow Light Snow
7:33 AM 15.8 °F 2.7 °F 10.4 °F 79% 29.58 in 10.0 mi ENE 11.5 mph 18.4 mph N/A   Overcast
7:52 AM 15.8 °F 2.1 °F 10.4 °F 79% 29.60 in 10.0 mi ENE 12.7 mph 19.6 mph N/A   Overcast
8:12 AM 14.0 °F 0.5 °F 8.6 °F 79% 29.64 in 10.0 mi East 11.5 mph 19.6 mph N/A   Overcast
8:33 AM 14.0 °F -0.2 °F 8.6 °F 79% 29.67 in 10.0 mi ENE 12.7 mph 18.4 mph N/A   Overcast
8:52 AM 14.0 °F -1.4 °F 8.6 °F 79% 29.70 in 10.0 mi NE 15.0 mph 20.7 mph N/A   Overcast
9:13 AM 14.0 °F -2.0 °F 8.6 °F 79% 29.74 in 10.0 mi NE 16.1 mph - N/A   Overcast
9:32 AM 14.0 °F -0.2 °F 8.6 °F 79% 29.75 in 10.0 mi NE 12.7 mph 20.7 mph N/A   Overcast
9:52 AM 14.0 °F 0.5 °F 8.6 °F 79% 29.79 in 10.0 mi NNE 11.5 mph 19.6 mph N/A   Overcast
10:13 AM 15.8 °F 2.1 °F 8.6 °F 73% 29.83 in 10.0 mi NNE 12.7 mph 17.3 mph N/A   Overcast
10:32 AM 15.8 °F 2.1 °F 8.6 °F 73% 29.86 in 10.0 mi NNE 12.7 mph - N/A   Mostly Cloudy
10:52 AM 15.8 °F 2.1 °F 8.6 °F 73% 29.87 in 10.0 mi NNE 12.7 mph - N/A   Overcast
11:13 AM 15.8 °F 2.1 °F 8.6 °F 73% 29.89 in 10.0 mi North 12.7 mph - N/A   Scattered Clouds
11:32 AM 15.8 °F 2.1 °F 8.6 °F 73% 29.90 in 10.0 mi North 12.7 mph - N/A   Clear
11:52 AM 15.8 °F 2.1 °F 8.6 °F 73% 29.91 in 10.0 mi North 12.7 mph - N/A   Clear
12:13 PM 15.8 °F 2.1 °F 8.6 °F 73% 29.91 in 10.0 mi North 12.7 mph 18.4 mph N/A   Clear
12:32 PM 15.8 °F 2.7 °F 8.6 °F 73% 29.92 in 10.0 mi North 11.5 mph - N/A   Clear
12:52 PM 15.8 °F -0.2 °F 8.6 °F 73% 29.92 in 10.0 mi North 17.3 mph 20.7 mph N/A   Clear
1:13 PM 17.6 °F 5.0 °F 8.6 °F 68% 29.91 in 10.0 mi NNE 11.5 mph - N/A   Clear
1:32 PM 17.6 °F 5.0 °F 8.6 °F 68% 29.91 in 10.0 mi North 11.5 mph - N/A   Clear
1:52 PM 17.6 °F 3.7 °F 10.4 °F 73% 29.93 in 10.0 mi North 13.8 mph 20.7 mph N/A   Clear
2:13 PM 17.6 °F 2.7 °F 10.4 °F 73% 29.94 in 10.0 mi North 16.1 mph - N/A   Clear
2:32 PM 17.6 °F 2.7 °F 10.4 °F 73% 29.95 in 10.0 mi North 16.1 mph - N/A   Clear
2:53 PM 15.8 °F 1.4 °F 10.4 °F 79% 29.95 in 10.0 mi North 13.8 mph - N/A   Clear
3:12 PM 15.8 °F 1.4 °F 10.4 °F 79% 29.96 in 10.0 mi North 13.8 mph 20.7 mph N/A   Clear
3:32 PM 15.8 °F 2.1 °F 10.4 °F 79% 29.98 in 10.0 mi NNW 12.7 mph - N/A   Mostly Cloudy
3:53 PM 15.8 °F 3.4 °F 10.4 °F 79% 29.99 in 10.0 mi NNW 10.4 mph - N/A   Scattered Clouds
4:12 PM 15.8 °F 2.1 °F 10.4 °F 79% 29.98 in 10.0 mi NNW 12.7 mph 18.4 mph N/A   Scattered Clouds
4:32 PM 14.0 °F 0.5 °F 10.4 °F 86% 29.98 in 10.0 mi North 11.5 mph - N/A   Clear
4:53 PM 12.2 °F 1.7 °F 8.6 °F 85% 29.98 in 10.0 mi North 6.9 mph - N/A   Clear
5:12 PM 12.2 °F 2.9 °F 8.6 °F 85% 29.96 in 10.0 mi NNW 5.8 mph - N/A   Clear
5:32 PM 10.4 °F 4.0 °F 8.6 °F 92% 29.96 in 10.0 mi WNW 3.5 mph - N/A   Clear
5:53 PM 10.4 °F 0.8 °F 8.6 °F 92% 29.96 in 10.0 mi WNW 5.8 mph - N/A   Clear
6:12 PM 12.2 °F 2.9 °F 8.6 °F 85% 29.95 in 10.0 mi West 5.8 mph - N/A   Scattered Clouds
6:32 PM 14.0 °F 5.1 °F 10.4 °F 86% 29.95 in 10.0 mi WNW 5.8 mph - N/A   Mostly Cloudy
6:53 PM 15.8 °F 7.2 °F 12.2 °F 86% 29.93 in 10.0 mi West 5.8 mph - N/A   Scattered Clouds
7:12 PM 15.8 °F 5.1 °F 12.2 °F 86% 29.92 in 10.0 mi West 8.1 mph - N/A   Scattered Clouds
7:33 PM 15.8 °F 5.1 °F 12.2 °F 86% 29.90 in 10.0 mi West 8.1 mph - N/A   Scattered Clouds
7:52 PM 15.8 °F 6.1 °F 12.2 °F 86% 29.88 in 10.0 mi West 6.9 mph - N/A   Scattered Clouds
8:12 PM 17.6 °F 8.2 °F 14.0 °F 86% 29.87 in 10.0 mi WSW 6.9 mph - N/A   Overcast
8:33 PM 17.6 °F 7.3 °F 14.0 °F 86% 29.85 in 10.0 mi WSW 8.1 mph - N/A   Overcast
8:52 PM 17.6 °F 5.0 °F 15.8 °F 93% 29.81 in 10.0 mi WSW 11.5 mph - N/A   Mostly Cloudy
9:12 PM 17.6 °F 5.0 °F 15.8 °F 93% 29.79 in 10.0 mi WSW 11.5 mph - N/A   Scattered Clouds
9:33 PM 19.4 °F 7.2 °F 15.8 °F 86% 29.76 in 10.0 mi WSW 11.5 mph - N/A   Scattered Clouds
9:52 PM 19.4 °F 7.2 °F 17.6 °F 93% 29.75 in 10.0 mi WSW 11.5 mph - N/A   Clear
10:12 PM 19.4 °F 7.9 °F 17.6 °F 93% 29.75 in 10.0 mi WSW 10.4 mph - N/A   Clear
10:33 PM 21.2 °F 10.1 °F 17.6 °F 86% 29.75 in 10.0 mi WSW 10.4 mph - N/A   Clear
10:52 PM 21.2 °F 11.7 °F 17.6 °F 86% 29.73 in 10.0 mi SW 8.1 mph - N/A   Clear
11:12 PM 21.2 °F 9.5 °F 19.4 °F 93% 29.71 in 10.0 mi WSW 11.5 mph - N/A   Clear
11:33 PM 23.0 °F 12.4 °F 19.4 °F 86% 29.70 in 10.0 mi WSW 10.4 mph - N/A   Clear
11:52 PM 24.8 °F 15.3 °F 19.4 °F 80% 29.68 in 10.0 mi WSW 9.2 mph - N/A   Clear